[ hide orbit diagram ]
For accurate long-term ephemerides, please instead use our Horizons system.This orbit viewer was implemented using two-body methods, and hence should not be used for determining accurate long-term trajectories (over several years or decades) or planetary encounter circumstances.
Orbital Elements at Epoch 2459200.5 (2020-Dec-17.0) TDB
Reference: JPL 10 (heliocentric ecliptic J2000)
Element | Value | Uncertainty (1-sigma) | Units |
e | .1237911612904999 | 5.8928e-08 | |
a | 2.215338916183565 | 1.6199e-08 | au |
q | 1.941099539097164 | 1.3809e-07 | au |
i | 1.78118918330332 | 6.1643e-06 | deg |
node | 328.8542151061071 | 0.00020165 | deg |
peri | 120.9207519680881 | 0.00020629 | deg |
M | 65.05393144576813 | 3.9258e-05 | deg |
tp | 2458982.864499349299 (2020-May-13.36449935) | 0.00013035 | TDB |
period | 1204.36656929132 3.30 | 1.321e-05 3.617e-08 | d yr |
n | .2989123155517619 | 3.2786e-09 | deg/d |
Q | 2.489578293269965 | 1.8205e-08 | au |
|
| | Orbit Determination Parameters
Additional Information
|
[ hide covariance matrix ]
Orbital Elements at Epoch 2457613.5 (2016-Aug-13.0) TDB
Reference: JPL 10 (heliocentric ecliptic J2000)
Element | Value | Uncertainty (1-sigma) | Units |
e | .1228757577459196 | 5.8752e-08 | |
q | 1.943321637929938 | 1.3756e-07 | au |
tp | 2457777.530504877757 (2017-Jan-24.03050488) | 0.00012727 | TDB |
node | 328.9803398602722 | 0.00020155 | deg |
peri | 120.5808003059174 | 0.0002063 | deg |
i | 1.781470999648125 | 6.1666e-06 | deg |
|
| | Orbit Determination Parameters
Additional Information
|
Orbit Covariance (6×6)
|
|
e |
q |
tp |
node |
peri |
i |
e |
3.451782781274506E-15 |
-8.049482234346522E-15 |
-9.402770117979924E-14 |
-2.853709297634021E-14 |
1.328513728199778E-13 |
-3.333074583965406E-15 |
q |
-8.049482234346522E-15 |
1.892381318177034E-14 |
7.850174448530043E-13 |
5.795009629371695E-14 |
-1.232884637294314E-13 |
8.267216142556738E-15 |
tp |
-9.402770117979924E-14 |
7.850174448530043E-13 |
1.619887226643093E-8 |
-1.866326474969199E-10 |
5.622096550894203E-9 |
6.589816908544243E-12 |
node |
-2.853709297634021E-14 |
5.795009629371695E-14 |
-1.866326474969199E-10 |
4.062433888393144E-8 |
-4.066746886005395E-8 |
2.29598305045527E-10 |
peri |
1.328513728199778E-13 |
-1.232884637294314E-13 |
5.622096550894203E-9 |
-4.066746886005395E-8 |
4.256041711107339E-8 |
-2.274819002777592E-10 |
i |
-3.333074583965406E-15 |
8.267216142556738E-15 |
6.589816908544243E-12 |
2.29598305045527E-10 |
-2.274819002777592E-10 |
3.802668388214349E-11 |
|
Physical Parameter Table
Parameter |
Symbol |
Value |
Units |
Sigma |
Reference |
Notes |
absolute magnitude |
H |
18.2 |
|
n/a |
MPO418479 |
|
|
277998 (2006 UE85) Discovered 2004-Jan-13 by Spacewatch at Kitt Peak |
Reference: 20110517/Numbers.arc | Last Updated: 2011-05-20 |
|
|